Probability
0 0 0 0 0 0 0 0 0 0 0 3 3 3 3 3 3 3 6 16 19 35 35 29 26 42 35 26 29 23 32 29 32 42 48 55 65 74 71 74 71 77 77
0 0 0 0 0 0 0 0 0 0 0 0 0 3 3 3 3 3 3 10 19 23 29 29 26 39 45 29 26 29 29 32 35 39 45 55 65 74 81 71 71 74 81
0 0 0 0 0 0 0 0 0 0 0 0 0 0 3 3 3 3 3 6 13 13 23 23 29 29 26 32 26 26 23 23 32 42 42 52 58 65 74 77 68 68 77
0 0 0 0 0 0 0 0 0 0 0 0 0 0 3 6 6 6 3 0 6 6 10 16 16 32 29 29 26 23 23 29 29 26 42 52 55 61 65 71 74 65 71
0 0 0 0 0 0 0 0 0 0 0 0 0 3 0 0 3 0 0 0 3 10 10 10 10 19 23 26 32 23 29 26 26 26 29 45 48 61 58 58 65 65 68
0 0 0 0 0 0 0 0 0 0 0 0 0 0 3 0 6 3 6 6 3 3 3 10 10 10 23 26 32 23 23 23 16 26 26 35 39 52 58 65 61 58 61
0 0 0 0 0 0 0 0 0 0 0 0 3 0 0 0 3 6 6 3 6 6 6 10 13 13 13 19 13 10 23 26 23 19 32 29 29 52 55 65 65 55 55
0 0 0 0 0 0 0 0 0 0 0 0 0 0 0 0 0 0 6 3 3 3 3 3 3 6 3 19 3 10 23 19 16 23 26 32 35 48 52 55 55 52 58
0 0 0 0 0 0 0 0 0 0 0 0 0 0 0 0 0 0 3 6 3 3 3 3 3 0 3 19 13 3 3 3 13 13 23 26 35 39 42 48 52 52 55
0 0 0 0 0 0 0 0 0 0 0 0 0 0 0 0 0 0 3 6 3 3 3 0 0 3 6 13 10 3 3 3 3 16 19 26 26 32 35 35 45 58 52
0 0 0 0 0 0 0 0 0 0 0 0 0 0 0 0 0 0 3 3 3 3 0 3 3 6 3 13 19 6 3 3 3 13 13 29 26 26 29 35 42 42 42
0 0 0 0 0 0 0 0 0 0 0 0 0 0 3 3 0 0 0 3 0 0 0 3 6 6 16 10 6 3 3 3 3 3 13 23 26 23 26 29 39 42 42
0 0 0 0 0 0 0 0 0 0 0 0 0 0 0 0 0 0 0 0 0 0 0 3 6 10 3 10 10 0 3 3 3 3 3 10 16 23 29 26 32 35 35
0 0 0 0 0 0 0 0 0 0 0 0 0 0 0 0 0 0 0 0 0 0 3 0 6 6 6 6 6 0 6 3 0 0 0 0 0 3 13 16 26 35 35
0 0 0 0 0 0 0 0 0 0 0 0 0 0 0 0 3 3 0 0 0 0 3 0 3 3 6 10 6 6 6 3 0 0 0 0 0 0 0 3 10 13 26
0 0 0 0 0 0 0 0 0 0 0 0 0 0 0 0 0 0 0 0 0 0 3 3 3 6 3 3 3 6 6 3 0 0 0 0 0 0 0 0 0 0 0
0 0 0 0 0 0 0 0 0 0 0 0 0 0 0 0 0 0 0 0 0 0 3 0 0 0 6 6 6 6 6 6 6 0 0 0 0 0 0 0 0 0 0
0 0 0 0 0 0 0 0 0 0 0 0 0 0 0 0 0 0 0 0 0 0 3 0 0 0 6 6 6 6 6 6 6 0 0 0 0 0 0 0 0 0 0
0 0 0 0 0 0 0 0 0 0 0 0 0 0 0 0 0 0 0 0 0 0 3 3 0 3 3 3 6 6 6 6 3 0 0 0 0 0 0 0 0 0 0
0 0 0 0 0 0 0 0 0 0 0 0 0 0 0 0 0 0 0 0 3 0 0 3 3 3 0 3 3 6 6 6 3 0 0 0 0 0 0 0 0 0 0
0 0 0 0 0 0 0 0 0 0 0 0 0 0 0 0 0 0 0 3 3 3 3 3 3 3 3 3 6 6 6 6 3 0 0 0 0 0 0 0 0 0 0
0 0 0 0 0 0 0 0 0 0 0 0 0 0 0 0 0 0 0 0 0 0 0 3 3 0 3 3 6 6 3 3 3 3 0 0 0 0 0 0 0 0 0
0 0 0 0 0 0 0 0 0 0 0 0 0 0 0 0 0 0 0 0 0 0 0 0 3 3 0 0 6 6 3 6 3 3 0 0 0 0 0 0 0 0 0
0 0 0 0 0 0 0 0 0 0 0 0 0 0 0 0 0 0 0 0 0 0 0 0 0 0 0 0 3 3 6 6 0 3 0 0 0 0 0 0 0 0 0
0 0 0 0 0 0 0 0 0 0 0 0 0 0 0 0 0 0 0 0 3 0 0 0 0 0 0 0 0 6 3 3 0 0 0 0 0 0 0 0 0 0 0
0 0 0 0 0 0 0 0 0 0 0 0 0 0 0 0 0 0 0 0 0 0 0 0 0 0 0 0 0 0 3 3 0 0 0 0 0 0 0 0 0 0 0
Height
5881 5879 5876 5874 5871 5869 5866 5864 5862 5860 5858 5857 5855 5854 5854 5853 5853 5853 5853 5854 5854 5855 5856 5857 5859 5860 5861 5863 5865 5866 5868 5869 5871 5872 5874 5877 5880 5882 5884 5888 5891 5894 5897
5880 5878 5876 5873 5871 5868 5865 5863 5861 5858 5857 5855 5853 5852 5851 5850 5850 5850 5850 5851 5851 5852 5853 5855 5856 5857 5859 5860 5862 5864 5865 5867 5869 5870 5873 5876 5878 5879 5882 5886 5889 5893 5896
5880 5878 5875 5873 5870 5867 5864 5862 5859 5857 5855 5853 5852 5850 5849 5848 5848 5848 5848 5848 5848 5849 5851 5852 5853 5855 5856 5858 5859 5861 5863 5864 5866 5868 5871 5873 5876 5878 5881 5884 5888 5891 5894
5879 5877 5875 5872 5869 5867 5864 5861 5859 5856 5854 5852 5850 5849 5848 5847 5846 5846 5845 5846 5846 5847 5848 5849 5851 5852 5853 5855 5857 5858 5860 5861 5862 5865 5868 5871 5874 5877 5880 5883 5886 5889 5893
5879 5877 5874 5871 5869 5866 5863 5861 5858 5856 5853 5851 5849 5848 5846 5845 5844 5844 5843 5843 5844 5844 5845 5846 5848 5849 5851 5852 5854 5855 5857 5857 5858 5861 5865 5869 5872 5875 5878 5881 5885 5888 5890
5878 5876 5873 5871 5868 5865 5862 5860 5857 5855 5853 5850 5848 5847 5845 5844 5843 5842 5842 5841 5841 5842 5842 5843 5844 5846 5847 5849 5851 5853 5854 5855 5856 5860 5863 5866 5869 5873 5876 5879 5882 5885 5888
5878 5876 5873 5870 5867 5864 5862 5859 5857 5854 5852 5850 5848 5846 5844 5842 5841 5840 5840 5839 5839 5839 5840 5840 5841 5843 5844 5846 5848 5850 5851 5853 5855 5857 5860 5863 5866 5870 5873 5876 5879 5882 5885
5878 5875 5872 5869 5866 5864 5861 5858 5856 5853 5851 5849 5847 5845 5843 5842 5840 5839 5838 5837 5837 5837 5837 5837 5838 5839 5841 5843 5845 5846 5848 5850 5852 5855 5857 5860 5863 5866 5869 5872 5874 5877 5880
5877 5874 5871 5868 5866 5863 5860 5858 5855 5853 5850 5848 5846 5844 5842 5840 5839 5838 5836 5835 5835 5834 5834 5835 5835 5836 5838 5839 5841 5843 5845 5847 5849 5851 5854 5857 5860 5862 5865 5867 5870 5873 5875
5876 5873 5871 5868 5865 5862 5859 5857 5854 5852 5849 5847 5844 5842 5840 5838 5837 5836 5834 5833 5832 5832 5832 5832 5833 5833 5835 5836 5838 5840 5842 5844 5846 5848 5850 5853 5856 5858 5861 5863 5865 5867 5869
5875 5872 5870 5867 5864 5861 5858 5855 5853 5850 5847 5845 5842 5840 5838 5836 5834 5833 5832 5831 5830 5830 5829 5829 5830 5830 5831 5833 5834 5836 5838 5840 5842 5844 5846 5849 5851 5854 5857 5859 5861 5862 5863
5874 5871 5868 5865 5863 5860 5857 5854 5851 5848 5845 5842 5840 5837 5835 5833 5832 5830 5829 5828 5828 5827 5827 5827 5827 5827 5828 5829 5831 5832 5834 5836 5837 5839 5841 5844 5846 5850 5852 5855 5856 5858 5860
5872 5869 5867 5864 5861 5858 5855 5852 5849 5846 5843 5840 5837 5834 5832 5830 5829 5827 5827 5826 5825 5825 5824 5824 5824 5825 5825 5826 5827 5828 5830 5831 5833 5834 5836 5838 5841 5844 5848 5850 5853 5855 5857
5870 5867 5865 5862 5859 5856 5852 5849 5846 5843 5840 5836 5833 5831 5829 5827 5825 5824 5823 5823 5822 5822 5822 5822 5821 5821 5822 5822 5823 5824 5825 5827 5828 5829 5830 5831 5835 5839 5842 5845 5848 5851 5853
5867 5864 5862 5859 5856 5853 5850 5846 5843 5839 5836 5833 5829 5827 5825 5823 5821 5820 5819 5819 5819 5819 5819 5818 5818 5818 5818 5819 5819 5820 5821 5822 5824 5825 5826 5827 5831 5834 5837 5841 5843 5846 5849
5864 5861 5859 5856 5853 5849 5846 5842 5839 5835 5832 5829 5825 5823 5820 5818 5816 5815 5815 5814 5814 5814 5814 5814 5814 5814 5814 5814 5815 5816 5817 5818 5819 5821 5822 5824 5826 5829 5832 5835 5838 5840 5843
5860 5858 5855 5852 5849 5845 5842 5838 5834 5831 5827 5824 5821 5818 5815 5813 5811 5810 5810 5810 5809 5809 5809 5810 5809 5809 5809 5810 5810 5811 5812 5813 5815 5816 5817 5819 5822 5824 5826 5829 5831 5834 5836
5856 5854 5851 5848 5845 5841 5837 5833 5829 5826 5822 5818 5815 5812 5809 5807 5805 5804 5804 5804 5804 5804 5804 5804 5804 5804 5804 5804 5805 5806 5807 5808 5809 5811 5812 5814 5816 5818 5820 5822 5825 5827 5830
5852 5849 5846 5843 5840 5836 5832 5828 5824 5820 5816 5813 5809 5806 5803 5801 5800 5799 5799 5798 5798 5797 5797 5797 5798 5798 5798 5798 5799 5800 5801 5802 5803 5804 5806 5808 5810 5812 5814 5816 5818 5820 5823
5847 5844 5841 5838 5834 5831 5827 5822 5818 5814 5811 5807 5804 5801 5798 5796 5795 5794 5793 5792 5791 5791 5790 5789 5790 5790 5791 5791 5792 5793 5794 5795 5796 5797 5798 5800 5802 5804 5806 5808 5811 5813 5815
5841 5838 5835 5832 5828 5825 5820 5816 5812 5808 5805 5801 5798 5796 5793 5791 5790 5788 5787 5786 5784 5783 5782 5782 5782 5782 5783 5784 5784 5785 5786 5786 5788 5789 5790 5791 5793 5795 5797 5799 5802 5804 5806
5835 5832 5829 5825 5822 5818 5814 5810 5806 5802 5799 5796 5793 5790 5788 5786 5784 5782 5780 5778 5777 5776 5775 5774 5774 5774 5775 5775 5776 5776 5777 5778 5779 5780 5780 5782 5783 5785 5787 5790 5792 5794 5797
5828 5825 5821 5818 5814 5811 5807 5803 5799 5795 5792 5789 5786 5784 5781 5779 5776 5774 5773 5771 5769 5768 5767 5766 5765 5765 5766 5766 5766 5766 5767 5767 5768 5769 5770 5771 5772 5774 5776 5778 5781 5783 5786
5820 5817 5814 5810 5807 5803 5799 5795 5791 5788 5784 5781 5778 5776 5773 5771 5768 5766 5764 5762 5760 5758 5757 5756 5755 5755 5755 5754 5755 5755 5755 5756 5757 5757 5757 5759 5761 5762 5764 5766 5769 5771 5774
5812 5809 5806 5802 5799 5795 5791 5787 5783 5779 5776 5772 5769 5767 5764 5762 5759 5757 5754 5752 5750 5748 5746 5745 5744 5743 5743 5742 5742 5742 5742 5743 5744 5745 5745 5746 5747 5749 5751 5753 5755 5758 5761
5804 5801 5797 5794 5790 5786 5783 5778 5774 5771 5767 5763 5760 5757 5754 5751 5748 5745 5743 5740 5738 5737 5735 5733 5732 5731 5730 5729 5728 5728 5728 5728 5729 5731 5731 5731 5733 5734 5737 5739 5741 5744 5747
Wind_Speed
12 12 13 13 13 13 13 12 11 11 10 10 10 10 10 10 11 11 11 12 13 14 15 15 16 17 18 18 18 17 17 17 17 18 20 20 20 20 20 21 21 20 19
12 12 13 13 14 14 13 13 12 11 11 10 10 9 9 9 10 10 11 11 12 13 14 15 15 16 17 18 18 18 18 18 18 20 21 21 21 21 21 22 21 21 20
11 12 13 13 14 14 14 13 13 12 11 11 10 9 8 9 9 10 10 10 12 13 14 15 15 16 17 18 18 19 19 19 20 22 23 23 22 21 22 22 22 22 21
11 12 13 14 14 14 14 13 13 12 11 11 10 9 8 8 9 9 9 10 11 12 14 14 15 16 17 18 18 19 20 19 21 23 24 24 23 22 22 22 22 23 22
11 12 13 14 14 14 14 14 13 13 12 12 11 9 9 8 8 8 8 9 10 12 13 14 16 16 17 18 18 18 20 19 21 23 25 24 25 24 23 23 23 23 23
12 13 13 14 14 14 14 14 14 13 12 12 11 10 9 9 8 7 8 8 9 11 12 14 15 16 17 17 18 19 19 20 21 24 25 25 25 25 24 24 24 24 24
12 13 14 14 14 14 14 14 14 13 12 12 11 11 10 9 9 8 8 8 9 10 12 14 15 16 18 18 18 19 20 21 22 24 25 24 25 25 26 25 25 25 25
12 13 14 14 14 14 14 14 14 13 13 13 12 12 11 10 9 9 8 8 8 9 11 13 14 15 17 19 19 19 20 21 22 24 25 25 26 25 25 26 26 27 26
12 14 14 15 14 14 14 14 14 13 13 13 13 13 12 11 10 9 9 8 8 8 10 11 13 14 16 18 19 19 20 22 23 24 24 25 26 26 26 26 26 27 28
13 14 15 15 15 15 14 14 14 14 14 14 14 14 13 12 11 10 10 9 8 8 9 10 12 14 16 17 19 20 21 23 24 24 24 26 27 28 27 28 28 28 29
13 14 15 15 15 15 15 15 15 15 15 15 15 14 13 12 11 11 10 9 9 9 9 9 11 12 15 16 18 20 21 22 24 25 25 25 26 28 27 28 28 27 28
13 14 15 15 15 16 16 16 16 16 16 16 16 15 14 13 12 11 10 9 9 9 8 9 10 12 13 15 17 19 20 22 24 25 26 26 27 27 28 28 27 28 28
13 14 15 15 16 16 17 17 17 17 17 17 17 16 15 14 13 12 11 10 9 9 9 10 10 12 13 15 17 19 20 21 23 25 26 27 27 27 28 29 27 27 29
14 15 15 16 17 18 18 19 19 18 18 18 17 16 16 15 14 13 12 11 11 11 11 11 11 12 13 15 16 18 20 21 22 24 25 26 27 27 27 28 29 28 28
15 16 17 17 18 19 20 20 20 20 20 19 18 17 17 16 15 14 13 12 12 12 12 12 13 13 14 15 16 18 20 21 21 22 24 26 27 28 27 28 29 29 30
16 17 18 19 19 20 21 21 21 21 20 20 19 19 18 17 16 15 14 13 13 13 13 13 14 15 15 16 17 19 20 21 22 23 24 26 28 28 28 28 29 31 31
17 18 18 19 20 21 22 22 22 22 21 21 20 20 20 19 17 16 15 14 15 15 15 15 16 16 16 17 18 19 21 22 23 24 25 26 28 28 29 29 29 30 31
19 19 20 21 22 22 23 23 23 23 22 22 22 22 21 20 18 17 16 16 16 17 17 17 18 18 19 19 20 20 22 22 24 25 26 26 27 28 30 30 30 30 31
20 21 22 23 23 24 24 24 24 23 23 23 23 22 21 20 18 18 18 18 18 19 20 20 20 21 21 22 22 22 23 24 25 26 27 28 28 29 30 32 31 31 31
22 22 23 24 25 25 26 26 25 25 24 24 23 22 21 20 19 19 20 20 21 21 22 22 23 23 23 23 24 25 25 26 27 28 29 30 30 31 32 32 33 33 33
23 24 24 25 26 26 27 27 26 25 25 24 23 23 23 21 21 21 22 22 23 23 24 24 24 24 24 25 26 26 27 28 29 30 31 32 33 34 34 34 34 35 35
24 25 26 27 27 28 28 28 27 26 26 25 25 25 25 24 24 25 25 24 24 25 25 26 26 26 26 27 28 28 29 30 31 32 33 34 35 36 36 36 36 37 37
27 27 28 28 29 29 29 30 29 28 28 27 27 27 27 27 27 27 27 28 28 28 28 28 28 28 29 29 31 31 32 32 33 34 35 35 37 38 38 38 38 39 40
28 28 29 29 30 30 31 31 30 30 30 29 29 29 29 29 29 29 29 30 30 30 31 31 31 31 31 32 33 34 35 35 36 36 37 38 38 39 40 40 41 41 41
29 29 30 31 31 32 32 32 32 31 31 31 32 32 32 32 32 33 33 33 32 33 33 33 33 33 33 34 35 36 37 38 38 39 39 40 40 41 42 42 42 42 43
31 31 32 32 33 33 33 33 34 34 34 34 34 34 34 35 35 36 36 35 35 35 36 36 36 35 36 37 37 38 39 40 40 40 40 41 42 43 43 43 44 44 44
Wind_Direction
356 356 355 354 351 349 346 342 338 332 325 319 312 305 296 286 279 274 269 260 251 243 239 236 233 230 226 224 221 217 216 211 209 206 204 203 205 206 204 201 199 198 197
357 358 357 356 355 354 352 348 344 338 333 325 317 309 301 291 284 279 273 263 251 244 239 238 235 231 228 225 222 220 217 215 212 207 205 206 205 202 202 201 199 199 200
357 357 357 357 356 355 353 351 348 345 342 338 330 319 310 300 289 284 275 264 252 246 242 239 235 232 231 229 226 223 221 219 213 209 206 205 204 202 203 202 202 202 202
357 356 355 355 355 356 356 354 353 351 348 345 342 334 323 311 299 289 278 268 256 249 245 241 237 235 234 231 228 226 224 222 218 212 208 206 207 207 205 204 204 203 204
357 356 354 354 354 355 355 355 353 352 350 347 346 343 335 324 311 296 282 274 263 252 247 244 241 237 235 232 228 225 222 222 216 210 210 209 209 207 206 206 206 206 207
356 355 353 352 353 353 354 353 353 352 352 351 349 346 340 330 322 309 293 281 269 257 249 245 242 237 234 233 230 228 222 219 215 210 211 212 209 207 208 209 210 211 211
356 356 354 353 352 353 354 354 355 354 353 352 349 346 341 334 324 313 301 289 277 264 256 248 243 238 235 233 232 230 225 220 216 214 213 213 213 212 212 213 214 214 214
354 355 354 352 352 353 355 355 355 353 350 348 345 341 339 334 328 318 309 297 286 271 260 252 245 239 236 233 231 230 227 223 219 217 216 216 217 217 217 219 218 217 217
353 354 354 354 354 353 352 353 352 350 347 344 342 339 335 332 326 319 312 305 293 279 266 256 249 243 237 233 231 231 229 227 223 221 220 220 218 219 220 222 222 221 220
349 350 351 352 352 350 349 348 348 348 345 343 340 337 334 330 326 321 313 305 295 283 272 260 252 246 240 236 233 232 231 228 228 226 225 224 223 222 221 222 224 224 223
345 347 348 349 349 348 347 345 344 342 342 340 339 336 332 327 323 320 315 306 296 286 278 265 255 248 242 237 234 232 233 230 231 230 229 227 227 225 225 226 226 224 222
339 343 345 346 347 346 345 343 340 338 338 337 336 334 330 326 320 316 312 306 298 289 280 270 260 252 245 240 237 234 235 233 232 231 232 229 229 228 227 227 226 224 223
335 338 341 342 342 342 342 340 338 336 335 334 332 329 325 320 316 312 308 304 297 290 282 275 267 258 251 246 241 237 237 237 236 236 235 233 232 229 229 228 228 225 224
331 333 336 337 338 338 338 336 336 334 332 331 328 325 322 317 312 307 303 299 295 289 283 276 270 263 256 250 245 240 239 239 239 238 238 236 233 231 230 230 229 228 227
325 328 331 332 333 334 334 333 332 331 330 329 326 322 318 315 310 303 299 294 290 285 281 277 271 267 262 255 250 244 242 239 240 238 237 236 236 235 234 233 232 232 232
319 323 325 326 328 329 330 330 330 329 327 326 325 321 317 312 307 300 294 290 287 283 279 276 272 269 265 259 254 249 246 244 242 241 239 236 236 237 237 238 237 236 236
316 319 321 323 324 326 327 327 327 327 325 323 321 319 316 312 306 298 293 289 286 281 277 275 273 270 267 263 260 255 250 247 245 244 243 241 241 240 240 239 238 237 237
314 315 317 319 321 322 322 323 323 323 323 320 319 316 313 309 303 297 293 290 287 281 277 275 273 271 270 266 263 260 254 251 248 247 246 245 244 243 241 241 241 241 240
311 312 314 316 318 319 319 319 318 319 319 318 318 316 312 308 302 297 294 292 288 285 280 276 272 270 270 268 263 261 258 255 252 251 250 248 247 247 246 245 245 245 244
308 310 312 314 315 316 317 317 316 315 316 316 316 315 312 307 302 298 295 293 290 287 283 278 273 269 268 268 265 263 261 258 256 254 253 251 249 249 249 248 247 247 247
307 309 310 312 313 314 315 315 315 314 314 314 313 312 310 305 302 298 295 292 289 286 283 280 277 271 267 266 265 264 264 262 259 258 256 254 252 251 251 249 249 248 248
305 307 308 310 311 312 313 313 313 312 311 310 309 308 306 304 301 298 296 292 289 286 283 281 279 274 270 269 267 265 264 263 262 260 258 256 254 252 252 250 250 250 249
304 305 306 308 309 311 311 311 310 309 308 306 305 305 304 301 300 298 295 292 290 287 284 282 280 276 272 271 270 269 267 264 263 261 259 257 256 253 252 251 250 249 249
302 304 305 307 308 309 309 310 310 308 306 305 303 303 301 299 298 296 293 291 289 287 286 284 280 277 275 274 273 271 269 266 264 262 261 258 257 255 254 253 252 251 249
301 303 304 306 307 307 308 308 308 306 304 304 302 301 300 298 296 294 293 290 288 286 285 284 280 277 276 275 275 273 270 268 266 263 261 260 258 256 255 254 253 252 251
300 301 303 304 305 305 306 306 305 305 304 303 302 301 299 297 297 296 294 291 288 286 284 284 281 279 277 276 274 274 271 268 266 264 263 262 260 258 255 254 254 253 252